GFSNGP_prec_precacc_192.txt.gz
Total_Precipitation_Accumulation
0.09 0.04 0.08 0.16 0.16 0.13 0.32 0.46 0.78 0.29 0.22 0.32 0.33 0.44 0.62 0.39 0.45 0.31 0.67 0.81 0.61 0.64 0.59 0.58 0.65 0.68 0.76 0.66 0.65 0.72 0.68 0.69 0.59 0.72 1.13 1.33 1.64 1.66 1.41 1.12 0.99 0.94 0.85 0.80
0.34 0.03 0.02 0.07 0.10 0.09 0.06 0.07 0.15 0.17 0.17 0.04 0.04 0.10 0.09 0.10 0.11 0.21 0.37 0.28 0.29 0.22 0.23 0.27 0.33 0.39 0.52 0.61 0.53 0.49 0.50 0.46 0.61 0.76 0.68 0.76 0.74 0.67 0.72 0.85 0.88 0.77 0.59 0.55
0.57 0.06 0.16 0.45 0.10 0.05 0.16 0.24 0.19 0.19 0.15 0.02 0.04 0.08 0.15 0.13 0.11 0.12 0.12 0.07 0.15 0.21 0.17 0.27 0.29 0.31 0.44 0.57 0.56 0.41 0.35 0.35 0.39 0.41 0.42 0.37 0.32 0.36 0.43 0.47 0.52 0.63 0.73 0.57
0.80 0.39 0.92 0.32 0.04 0.04 0.20 0.14 0.07 0.11 0.06 0.04 0.04 0.17 0.14 0.07 0.06 0.08 0.07 0.07 0.06 0.09 0.06 0.12 0.26 0.44 0.51 0.55 0.60 0.58 0.39 0.29 0.23 0.22 0.26 0.34 0.49 0.59 0.59 0.54 0.40 0.35 0.43 0.81
1.08 0.74 0.40 0.12 0.09 0.13 0.19 0.33 0.21 0.18 0.12 0.06 0.05 0.20 0.31 0.11 0.08 0.09 0.07 0.05 0.01 0.01 0.01 0.02 0.10 0.37 0.76 0.90 0.71 0.70 0.57 0.50 0.40 0.40 0.48 0.63 0.79 0.86 0.74 0.64 0.64 0.51 0.45 0.46
1.12 1.02 0.48 0.23 0.16 0.07 0.19 0.67 0.73 0.41 0.37 0.32 0.21 0.39 0.44 0.16 0.11 0.07 0.03 0.01 0.00 0.01 0.00 0.02 0.09 0.26 0.47 0.88 1.04 0.86 0.86 0.79 0.81 0.77 0.79 0.89 0.85 0.71 0.63 0.65 0.58 0.63 0.69 0.47
1.30 1.71 0.90 0.24 0.08 0.11 0.62 1.19 0.89 0.86 1.07 0.91 0.92 1.04 0.63 0.37 0.15 0.04 0.00 0.00 0.01 0.02 0.02 0.02 0.07 0.23 0.57 0.84 1.30 1.38 1.19 1.29 1.22 1.12 1.09 0.93 0.77 0.64 0.59 0.55 0.55 0.49 0.47 0.54
1.33 1.69 1.09 0.27 0.43 0.93 1.01 0.60 0.77 1.28 1.52 1.29 1.10 0.80 0.45 0.14 0.06 0.02 0.00 0.01 0.01 0.01 0.03 0.03 0.04 0.09 0.30 0.74 1.49 2.06 1.86 1.47 1.37 1.17 0.84 0.68 0.55 0.49 0.49 0.50 0.51 0.49 0.43 0.37
1.03 0.85 0.51 0.38 0.65 0.83 0.71 0.76 0.87 0.77 0.81 0.57 0.44 0.21 0.07 0.04 0.01 0.00 0.00 0.00 0.01 0.01 0.04 0.06 0.07 0.09 0.15 0.27 0.56 1.53 2.27 2.13 1.64 1.14 0.97 0.88 0.81 0.73 0.62 0.55 0.51 0.54 0.54 0.53
1.15 0.67 0.37 0.54 0.41 0.54 0.80 0.73 0.46 0.43 0.42 0.38 0.26 0.16 0.11 0.04 0.03 0.01 0.01 0.01 0.02 0.03 0.03 0.02 0.04 0.08 0.17 0.24 0.42 0.74 1.25 1.74 2.04 2.02 1.25 1.09 1.23 1.19 1.32 1.30 1.03 0.99 1.07 1.09
1.43 1.51 0.96 0.62 0.58 0.60 0.64 0.61 0.61 0.34 0.25 0.28 0.36 0.31 0.27 0.23 0.10 0.03 0.05 0.06 0.05 0.07 0.06 0.05 0.09 0.12 0.19 0.31 0.35 0.41 0.70 1.11 1.41 2.06 2.00 1.16 1.04 1.24 1.20 1.48 1.60 1.35 1.21 1.26
1.32 1.34 1.61 1.16 1.30 1.02 0.87 0.49 0.31 0.17 0.23 0.18 0.10 0.11 0.16 0.21 0.31 0.31 0.23 0.19 0.18 0.14 0.09 0.11 0.14 0.18 0.24 0.26 0.29 0.34 0.56 0.97 1.26 1.52 2.08 2.07 1.47 1.67 2.00 2.12 2.07 2.17 2.22 1.99
0.50 0.62 0.95 1.25 0.88 0.46 0.48 0.51 0.29 0.11 0.08 0.03 0.02 0.06 0.15 0.32 0.42 0.44 0.41 0.35 0.32 0.35 0.35 0.26 0.22 0.24 0.27 0.25 0.28 0.36 0.48 0.62 0.98 1.37 1.75 1.95 2.05 1.83 1.91 2.07 1.99 1.96 1.96 1.80
0.13 0.23 0.36 0.34 0.35 0.22 0.21 0.30 0.22 0.19 0.13 0.09 0.08 0.10 0.15 0.33 0.86 1.26 1.18 0.83 0.61 0.51 0.57 0.65 0.66 0.76 0.81 0.74 0.70 0.75 0.90 1.17 1.21 1.36 1.78 2.09 2.21 2.16 2.05 1.82 1.66 1.88 1.93 1.92
0.02 0.08 0.17 0.11 0.08 0.11 0.09 0.09 0.06 0.09 0.16 0.18 0.12 0.15 0.27 0.45 0.63 0.90 1.40 1.54 1.48 1.40 1.44 1.36 1.30 1.72 1.78 1.64 1.59 1.59 1.43 1.46 1.50 1.65 1.68 1.75 1.86 1.88 1.79 1.73 1.70 1.74 1.67 1.47
0.03 0.02 0.03 0.05 0.07 0.09 0.08 0.09 0.10 0.08 0.04 0.04 0.11 0.22 0.19 0.33 0.43 0.55 0.84 1.08 1.21 1.59 1.91 1.93 1.94 1.96 1.66 1.50 1.26 1.23 1.22 1.08 0.92 0.95 1.17 1.32 1.32 1.38 1.52 1.55 1.57 1.56 1.54 1.61
0.07 0.04 0.05 0.07 0.10 0.11 0.11 0.07 0.04 0.04 0.04 0.05 0.09 0.13 0.13 0.20 0.38 0.73 1.05 1.15 1.29 1.45 1.46 1.33 1.33 1.08 0.84 0.81 0.72 0.69 0.72 0.71 0.65 0.65 0.70 0.78 0.95 1.08 1.17 1.18 1.22 1.22 1.32 1.38
0.10 0.08 0.11 0.16 0.09 0.03 0.03 0.04 0.06 0.07 0.09 0.13 0.28 0.43 0.47 0.53 0.77 1.15 1.49 1.43 1.01 0.93 1.00 0.94 0.73 0.54 0.47 0.50 0.44 0.41 0.42 0.43 0.49 0.58 0.60 0.63 0.71 0.76 0.75 0.77 0.85 0.89 0.98 0.97
0.28 0.30 0.14 0.08 0.06 0.04 0.04 0.07 0.10 0.17 0.26 0.31 0.45 0.74 0.90 0.95 0.92 0.89 0.89 0.84 0.87 0.73 0.79 0.52 0.39 0.29 0.26 0.29 0.25 0.31 0.34 0.38 0.39 0.40 0.47 0.50 0.52 0.63 0.69 0.67 0.67 0.73 0.75 0.78
0.25 0.17 0.16 0.12 0.12 0.11 0.14 0.21 0.28 0.42 0.54 0.47 0.55 0.65 0.63 0.69 0.60 0.60 0.59 0.54 0.51 0.47 0.33 0.29 0.25 0.24 0.21 0.19 0.13 0.18 0.23 0.29 0.29 0.35 0.45 0.48 0.58 0.61 0.57 0.52 0.56 0.62 0.65 0.71
0.39 0.15 0.14 0.19 0.26 0.36 0.42 0.47 0.47 0.57 0.77 0.60 0.48 0.60 0.66 0.84 0.78 0.68 0.54 0.40 0.38 0.26 0.23 0.21 0.16 0.16 0.13 0.15 0.16 0.20 0.28 0.32 0.37 0.43 0.42 0.44 0.43 0.41 0.46 0.47 0.51 0.52 0.56 0.59
0.68 0.66 0.52 0.47 0.49 0.63 0.68 0.67 0.53 0.56 0.61 0.66 0.68 0.65 0.62 0.74 0.69 0.61 0.47 0.38 0.32 0.25 0.22 0.22 0.17 0.18 0.16 0.19 0.23 0.27 0.30 0.31 0.29 0.28 0.31 0.33 0.35 0.37 0.39 0.39 0.43 0.44 0.45 0.47
1.07 1.02 1.01 0.83 0.69 0.81 0.89 0.78 0.77 0.65 0.69 0.68 0.65 0.62 0.53 0.59 0.49 0.36 0.36 0.28 0.20 0.21 0.23 0.23 0.19 0.18 0.17 0.25 0.30 0.31 0.31 0.27 0.24 0.27 0.28 0.29 0.31 0.33 0.34 0.34 0.36 0.40 0.39 0.38
0.79 0.78 0.94 0.86 0.73 0.64 0.68 0.81 0.70 0.65 0.57 0.63 0.59 0.54 0.44 0.42 0.42 0.30 0.26 0.23 0.22 0.21 0.26 0.26 0.16 0.14 0.20 0.29 0.28 0.26 0.29 0.25 0.21 0.24 0.24 0.24 0.26 0.25 0.26 0.27 0.27 0.26 0.29 0.28
0.65 0.60 0.56 0.54 0.52 0.59 0.53 0.52 0.47 0.53 0.50 0.61 0.56 0.45 0.34 0.29 0.35 0.34 0.29 0.28 0.24 0.21 0.24 0.22 0.14 0.15 0.23 0.26 0.26 0.25 0.26 0.23 0.20 0.25 0.27 0.25 0.24 0.23 0.22 0.22 0.22 0.21 0.20 0.20
0.67 0.66 0.59 0.50 0.51 0.47 0.44 0.44 0.48 0.57 0.49 0.52 0.49 0.39 0.37 0.31 0.30 0.28 0.25 0.22 0.15 0.16 0.22 0.27 0.20 0.20 0.22 0.23 0.24 0.23 0.23 0.22 0.20 0.23 0.23 0.22 0.23 0.21 0.20 0.20 0.20 0.18 0.18 0.16
0.61 0.54 0.44 0.44 0.46 0.44 0.44 0.45 0.42 0.47 0.44 0.43 0.47 0.37 0.35 0.34 0.32 0.31 0.29 0.27 0.25 0.25 0.27 0.27 0.23 0.20 0.20 0.23 0.26 0.24 0.22 0.22 0.20 0.20 0.21 0.22 0.23 0.25 0.24 0.24 0.23 0.22 0.21 0.21

GFSNGP_prec_precacc_195.txt.gz
Total_Precipitation_Accumulation
0.09 0.04 0.08 0.16 0.16 0.13 0.33 0.47 0.80 0.29 0.22 0.32 0.33 0.45 0.62 0.39 0.45 0.31 0.67 0.81 0.61 0.64 0.59 0.58 0.65 0.68 0.76 0.66 0.65 0.72 0.68 0.69 0.59 0.72 1.13 1.33 1.64 1.66 1.41 1.13 1.03 0.99 0.90 0.85
0.35 0.03 0.02 0.07 0.10 0.09 0.06 0.07 0.15 0.17 0.17 0.04 0.04 0.10 0.09 0.10 0.11 0.21 0.37 0.28 0.29 0.22 0.23 0.27 0.33 0.39 0.52 0.61 0.53 0.49 0.50 0.46 0.61 0.76 0.68 0.76 0.74 0.67 0.72 0.87 0.90 0.79 0.61 0.57
0.60 0.07 0.17 0.47 0.10 0.05 0.16 0.24 0.19 0.19 0.15 0.02 0.04 0.08 0.15 0.13 0.11 0.12 0.12 0.07 0.15 0.21 0.17 0.27 0.29 0.31 0.44 0.57 0.56 0.41 0.35 0.35 0.39 0.41 0.42 0.37 0.32 0.36 0.43 0.49 0.54 0.66 0.77 0.61
0.83 0.41 0.97 0.33 0.04 0.04 0.20 0.14 0.07 0.11 0.06 0.04 0.04 0.17 0.14 0.07 0.06 0.08 0.07 0.07 0.06 0.09 0.06 0.12 0.26 0.44 0.51 0.55 0.60 0.58 0.39 0.29 0.23 0.22 0.26 0.34 0.49 0.59 0.60 0.58 0.49 0.46 0.57 0.95
1.09 0.75 0.40 0.12 0.09 0.13 0.19 0.33 0.21 0.18 0.12 0.06 0.05 0.20 0.31 0.11 0.09 0.10 0.07 0.05 0.01 0.01 0.01 0.02 0.10 0.37 0.76 0.90 0.71 0.70 0.57 0.50 0.40 0.40 0.48 0.63 0.79 0.87 0.79 0.74 0.79 0.70 0.64 0.64
1.14 1.04 0.49 0.23 0.16 0.07 0.19 0.69 0.73 0.41 0.37 0.32 0.21 0.40 0.44 0.16 0.11 0.07 0.03 0.01 0.00 0.01 0.00 0.02 0.09 0.26 0.47 0.88 1.04 0.86 0.86 0.79 0.81 0.77 0.79 0.89 0.86 0.77 0.75 0.82 0.78 0.83 0.86 0.61
1.33 1.73 0.91 0.24 0.08 0.11 0.62 1.20 0.89 0.86 1.07 0.91 0.94 1.06 0.63 0.37 0.15 0.04 0.00 0.00 0.01 0.02 0.02 0.02 0.07 0.23 0.57 0.84 1.30 1.38 1.19 1.29 1.23 1.14 1.12 1.01 0.93 0.86 0.85 0.80 0.76 0.65 0.60 0.64
1.35 1.71 1.10 0.27 0.43 0.93 1.01 0.60 0.77 1.28 1.52 1.29 1.10 0.80 0.45 0.14 0.06 0.02 0.00 0.01 0.01 0.01 0.03 0.03 0.04 0.09 0.30 0.74 1.49 2.07 1.88 1.53 1.48 1.34 1.03 0.88 0.77 0.74 0.72 0.68 0.66 0.62 0.53 0.47
1.04 0.85 0.51 0.38 0.65 0.83 0.71 0.76 0.87 0.77 0.81 0.57 0.44 0.21 0.07 0.04 0.01 0.00 0.00 0.00 0.01 0.01 0.04 0.06 0.07 0.09 0.18 0.31 0.63 1.65 2.46 2.38 1.86 1.33 1.14 1.05 0.99 0.91 0.78 0.68 0.62 0.65 0.64 0.61
1.16 0.67 0.37 0.54 0.41 0.54 0.80 0.73 0.46 0.43 0.42 0.38 0.26 0.16 0.11 0.04 0.03 0.01 0.01 0.01 0.02 0.03 0.03 0.02 0.04 0.08 0.20 0.33 0.55 0.93 1.44 1.95 2.25 2.20 1.39 1.21 1.36 1.31 1.43 1.40 1.11 1.06 1.11 1.11
1.45 1.51 0.96 0.62 0.58 0.60 0.64 0.62 0.61 0.34 0.25 0.28 0.36 0.31 0.27 0.23 0.10 0.03 0.05 0.06 0.05 0.07 0.06 0.05 0.09 0.12 0.20 0.37 0.46 0.48 0.76 1.16 1.48 2.13 2.04 1.21 1.10 1.30 1.25 1.53 1.62 1.37 1.22 1.27
1.33 1.34 1.63 1.16 1.30 1.02 0.87 0.49 0.32 0.18 0.23 0.18 0.10 0.11 0.16 0.21 0.31 0.31 0.23 0.20 0.18 0.14 0.09 0.11 0.14 0.18 0.24 0.27 0.30 0.36 0.58 1.00 1.29 1.56 2.13 2.10 1.50 1.72 2.04 2.14 2.08 2.18 2.22 1.99
0.50 0.62 0.95 1.25 0.88 0.46 0.48 0.51 0.29 0.11 0.08 0.03 0.02 0.06 0.15 0.32 0.42 0.44 0.41 0.35 0.32 0.35 0.35 0.26 0.22 0.25 0.27 0.26 0.28 0.37 0.49 0.64 1.00 1.39 1.77 1.97 2.07 1.85 1.92 2.07 1.99 1.96 1.96 1.80
0.13 0.23 0.36 0.34 0.35 0.22 0.21 0.30 0.22 0.19 0.13 0.09 0.08 0.10 0.15 0.33 0.86 1.27 1.19 0.84 0.61 0.51 0.57 0.66 0.67 0.77 0.81 0.74 0.71 0.76 0.92 1.18 1.23 1.38 1.79 2.11 2.22 2.17 2.05 1.82 1.66 1.88 1.93 1.92
0.02 0.08 0.17 0.12 0.09 0.12 0.09 0.10 0.06 0.09 0.16 0.18 0.12 0.15 0.27 0.45 0.63 0.90 1.40 1.54 1.48 1.40 1.44 1.36 1.32 1.74 1.80 1.66 1.61 1.62 1.46 1.48 1.51 1.66 1.69 1.76 1.87 1.88 1.79 1.73 1.71 1.74 1.67 1.47
0.08 0.05 0.05 0.08 0.10 0.10 0.08 0.09 0.10 0.09 0.04 0.04 0.11 0.22 0.19 0.33 0.43 0.55 0.84 1.08 1.21 1.59 1.92 1.94 1.97 2.00 1.71 1.53 1.29 1.26 1.24 1.09 0.92 0.95 1.18 1.32 1.32 1.38 1.52 1.56 1.57 1.56 1.55 1.62
0.16 0.06 0.06 0.09 0.11 0.13 0.11 0.07 0.05 0.05 0.05 0.06 0.09 0.13 0.13 0.20 0.38 0.73 1.05 1.15 1.30 1.46 1.49 1.36 1.37 1.13 0.89 0.84 0.74 0.70 0.72 0.71 0.65 0.65 0.70 0.78 0.95 1.09 1.17 1.18 1.22 1.23 1.32 1.39
0.11 0.08 0.15 0.25 0.16 0.08 0.05 0.04 0.06 0.08 0.09 0.13 0.28 0.43 0.47 0.53 0.77 1.15 1.49 1.44 1.04 0.98 1.07 1.02 0.80 0.59 0.50 0.51 0.45 0.41 0.42 0.43 0.49 0.58 0.60 0.63 0.71 0.76 0.76 0.77 0.85 0.89 0.99 0.98
0.29 0.39 0.22 0.16 0.13 0.10 0.06 0.07 0.11 0.18 0.27 0.31 0.45 0.74 0.90 0.95 0.92 0.89 0.89 0.85 0.89 0.75 0.84 0.58 0.44 0.32 0.27 0.29 0.25 0.31 0.34 0.38 0.39 0.40 0.47 0.50 0.52 0.63 0.69 0.67 0.67 0.73 0.75 0.79
0.26 0.24 0.23 0.17 0.15 0.13 0.15 0.21 0.28 0.42 0.54 0.47 0.55 0.65 0.63 0.70 0.61 0.62 0.60 0.56 0.53 0.48 0.34 0.31 0.25 0.24 0.21 0.19 0.13 0.18 0.23 0.29 0.29 0.35 0.45 0.48 0.58 0.62 0.57 0.52 0.56 0.62 0.66 0.72
0.40 0.20 0.17 0.22 0.27 0.36 0.42 0.47 0.47 0.57 0.77 0.61 0.50 0.62 0.69 0.88 0.80 0.68 0.54 0.40 0.39 0.27 0.23 0.21 0.16 0.16 0.13 0.15 0.16 0.20 0.28 0.32 0.37 0.43 0.42 0.44 0.43 0.42 0.46 0.47 0.51 0.52 0.57 0.60
0.69 0.68 0.55 0.49 0.49 0.64 0.68 0.67 0.53 0.56 0.62 0.68 0.70 0.67 0.64 0.76 0.69 0.61 0.47 0.38 0.32 0.25 0.22 0.22 0.17 0.18 0.16 0.19 0.23 0.27 0.30 0.31 0.29 0.28 0.31 0.33 0.35 0.38 0.39 0.40 0.44 0.44 0.46 0.48
1.07 1.04 1.06 0.87 0.71 0.81 0.89 0.78 0.78 0.66 0.71 0.70 0.66 0.62 0.53 0.59 0.49 0.36 0.36 0.28 0.20 0.21 0.23 0.23 0.19 0.18 0.17 0.25 0.30 0.31 0.31 0.27 0.25 0.27 0.29 0.29 0.32 0.33 0.35 0.35 0.37 0.41 0.40 0.39
0.79 0.79 0.96 0.87 0.74 0.64 0.69 0.83 0.72 0.68 0.60 0.67 0.61 0.55 0.44 0.42 0.42 0.30 0.26 0.23 0.22 0.21 0.26 0.26 0.16 0.14 0.20 0.29 0.28 0.26 0.29 0.25 0.21 0.25 0.24 0.24 0.27 0.26 0.27 0.28 0.27 0.27 0.30 0.29
0.65 0.60 0.57 0.55 0.53 0.59 0.54 0.54 0.51 0.58 0.53 0.63 0.56 0.45 0.34 0.29 0.35 0.34 0.29 0.28 0.24 0.21 0.24 0.22 0.14 0.15 0.23 0.26 0.26 0.25 0.26 0.24 0.20 0.26 0.28 0.26 0.25 0.23 0.23 0.22 0.22 0.22 0.21 0.21
0.67 0.67 0.59 0.51 0.52 0.48 0.44 0.44 0.48 0.57 0.50 0.53 0.49 0.39 0.37 0.31 0.30 0.28 0.25 0.22 0.15 0.16 0.22 0.27 0.20 0.20 0.22 0.23 0.24 0.23 0.23 0.22 0.20 0.23 0.24 0.22 0.23 0.22 0.21 0.21 0.20 0.19 0.18 0.17
0.61 0.55 0.44 0.44 0.47 0.45 0.45 0.45 0.42 0.47 0.44 0.43 0.47 0.38 0.35 0.34 0.32 0.31 0.29 0.27 0.25 0.25 0.27 0.27 0.23 0.20 0.20 0.23 0.26 0.24 0.23 0.22 0.20 0.20 0.22 0.23 0.24 0.25 0.25 0.24 0.24 0.23 0.22 0.21

GFSNGP_prec_precacc_198.txt.gz
Total_Precipitation_Accumulation
0.09 0.04 0.08 0.16 0.16 0.13 0.33 0.48 0.81 0.30 0.22 0.32 0.33 0.45 0.62 0.39 0.45 0.31 0.67 0.81 0.61 0.64 0.59 0.58 0.65 0.68 0.76 0.66 0.65 0.72 0.68 0.69 0.59 0.72 1.13 1.33 1.64 1.66 1.41 1.13 1.03 0.99 0.90 0.85
0.37 0.04 0.02 0.07 0.10 0.09 0.06 0.07 0.15 0.17 0.17 0.04 0.04 0.10 0.09 0.10 0.11 0.21 0.37 0.28 0.29 0.22 0.23 0.27 0.33 0.39 0.52 0.61 0.53 0.49 0.50 0.46 0.61 0.76 0.68 0.76 0.74 0.67 0.72 0.87 0.90 0.79 0.61 0.57
0.65 0.09 0.20 0.50 0.10 0.05 0.16 0.24 0.19 0.19 0.15 0.02 0.04 0.08 0.15 0.13 0.11 0.12 0.12 0.07 0.15 0.21 0.17 0.27 0.29 0.31 0.44 0.57 0.56 0.41 0.35 0.35 0.39 0.41 0.42 0.37 0.32 0.36 0.43 0.49 0.54 0.66 0.77 0.61
0.86 0.43 1.01 0.34 0.04 0.04 0.20 0.14 0.07 0.11 0.06 0.04 0.04 0.17 0.14 0.07 0.06 0.08 0.07 0.07 0.06 0.09 0.06 0.12 0.26 0.44 0.51 0.55 0.60 0.58 0.39 0.29 0.23 0.22 0.26 0.34 0.49 0.59 0.60 0.58 0.49 0.47 0.60 1.00
1.12 0.77 0.42 0.12 0.09 0.13 0.19 0.34 0.21 0.18 0.12 0.06 0.05 0.20 0.31 0.11 0.09 0.10 0.07 0.05 0.01 0.02 0.01 0.02 0.10 0.37 0.76 0.90 0.71 0.70 0.57 0.50 0.40 0.40 0.48 0.63 0.79 0.87 0.79 0.75 0.84 0.80 0.76 0.81
1.17 1.09 0.52 0.23 0.16 0.07 0.20 0.72 0.74 0.41 0.37 0.32 0.21 0.40 0.44 0.16 0.12 0.07 0.03 0.01 0.01 0.01 0.01 0.03 0.09 0.26 0.47 0.88 1.04 0.86 0.87 0.80 0.81 0.77 0.79 0.89 0.86 0.77 0.76 0.85 0.88 0.98 1.03 0.77
1.36 1.76 0.93 0.24 0.08 0.11 0.63 1.20 0.89 0.86 1.07 0.91 0.94 1.06 0.63 0.37 0.15 0.04 0.00 0.00 0.01 0.02 0.02 0.02 0.07 0.23 0.57 0.84 1.30 1.38 1.19 1.29 1.23 1.14 1.12 1.01 0.95 0.90 0.92 0.96 0.96 0.85 0.77 0.77
1.38 1.74 1.11 0.27 0.43 0.93 1.02 0.60 0.77 1.28 1.52 1.29 1.10 0.80 0.45 0.14 0.06 0.02 0.00 0.01 0.01 0.01 0.03 0.03 0.04 0.09 0.30 0.74 1.49 2.07 1.88 1.53 1.48 1.34 1.05 0.96 0.88 0.86 0.85 0.81 0.81 0.76 0.66 0.59
1.05 0.86 0.51 0.38 0.65 0.83 0.71 0.76 0.87 0.77 0.81 0.57 0.44 0.21 0.07 0.04 0.01 0.00 0.00 0.00 0.01 0.02 0.04 0.07 0.08 0.09 0.18 0.31 0.63 1.65 2.48 2.41 1.91 1.39 1.24 1.18 1.10 1.03 0.92 0.81 0.74 0.78 0.75 0.70
1.17 0.67 0.37 0.54 0.41 0.54 0.80 0.73 0.46 0.43 0.42 0.38 0.26 0.16 0.11 0.04 0.03 0.01 0.01 0.01 0.02 0.03 0.03 0.02 0.04 0.08 0.20 0.33 0.56 0.98 1.57 2.15 2.44 2.41 1.60 1.37 1.49 1.41 1.51 1.49 1.21 1.14 1.19 1.17
1.45 1.51 0.97 0.62 0.58 0.60 0.64 0.62 0.61 0.34 0.25 0.28 0.36 0.31 0.27 0.24 0.11 0.04 0.05 0.06 0.05 0.07 0.06 0.05 0.09 0.12 0.20 0.37 0.50 0.59 0.87 1.34 1.62 2.33 2.19 1.30 1.17 1.35 1.29 1.58 1.65 1.40 1.25 1.28
1.35 1.35 1.64 1.17 1.30 1.02 0.87 0.49 0.32 0.18 0.23 0.18 0.10 0.11 0.16 0.21 0.31 0.31 0.23 0.20 0.18 0.14 0.10 0.11 0.15 0.18 0.24 0.27 0.31 0.37 0.63 1.03 1.32 1.61 2.18 2.12 1.53 1.78 2.10 2.19 2.12 2.19 2.23 2.00
0.50 0.62 0.95 1.25 0.88 0.46 0.48 0.51 0.29 0.11 0.08 0.03 0.02 0.06 0.16 0.33 0.42 0.44 0.41 0.35 0.32 0.35 0.35 0.27 0.23 0.25 0.27 0.26 0.28 0.37 0.50 0.65 1.01 1.40 1.79 1.99 2.08 1.85 1.95 2.12 2.00 1.96 1.96 1.80
0.13 0.23 0.37 0.34 0.35 0.22 0.21 0.30 0.22 0.20 0.13 0.09 0.08 0.10 0.15 0.33 0.86 1.27 1.19 0.84 0.61 0.52 0.58 0.67 0.70 0.83 0.87 0.75 0.71 0.77 0.92 1.19 1.23 1.39 1.81 2.13 2.23 2.18 2.05 1.83 1.67 1.89 1.93 1.92
0.03 0.10 0.21 0.16 0.13 0.14 0.11 0.13 0.11 0.13 0.16 0.18 0.12 0.15 0.27 0.45 0.63 0.90 1.40 1.54 1.48 1.40 1.45 1.37 1.33 1.77 1.84 1.68 1.62 1.64 1.47 1.50 1.53 1.67 1.70 1.77 1.88 1.89 1.79 1.74 1.71 1.74 1.67 1.48
0.13 0.08 0.06 0.10 0.13 0.14 0.11 0.12 0.12 0.10 0.05 0.05 0.12 0.22 0.19 0.33 0.43 0.55 0.84 1.08 1.21 1.59 1.92 1.96 1.99 2.02 1.73 1.57 1.32 1.30 1.28 1.12 0.93 0.96 1.18 1.32 1.33 1.39 1.52 1.56 1.58 1.57 1.55 1.62
0.26 0.11 0.08 0.12 0.13 0.15 0.14 0.12 0.09 0.07 0.05 0.07 0.10 0.15 0.14 0.20 0.38 0.73 1.06 1.15 1.30 1.47 1.50 1.38 1.40 1.17 0.93 0.89 0.78 0.74 0.77 0.74 0.65 0.65 0.70 0.78 0.95 1.09 1.18 1.18 1.23 1.23 1.32 1.40
0.15 0.10 0.16 0.36 0.28 0.14 0.08 0.09 0.11 0.09 0.10 0.14 0.29 0.43 0.47 0.53 0.77 1.16 1.49 1.45 1.05 1.00 1.09 1.04 0.84 0.64 0.56 0.57 0.49 0.45 0.44 0.44 0.49 0.58 0.60 0.64 0.71 0.76 0.76 0.77 0.85 0.89 1.00 0.99
0.29 0.40 0.29 0.24 0.21 0.17 0.12 0.12 0.13 0.19 0.29 0.32 0.45 0.74 0.90 0.96 0.93 0.90 0.90 0.86 0.90 0.76 0.87 0.62 0.50 0.38 0.32 0.32 0.27 0.33 0.35 0.38 0.39 0.40 0.47 0.50 0.53 0.63 0.69 0.67 0.67 0.73 0.76 0.79
0.27 0.25 0.26 0.20 0.17 0.18 0.18 0.23 0.28 0.42 0.56 0.49 0.56 0.65 0.63 0.70 0.61 0.62 0.62 0.58 0.54 0.49 0.35 0.33 0.29 0.27 0.23 0.19 0.13 0.18 0.23 0.29 0.29 0.35 0.45 0.48 0.58 0.62 0.57 0.52 0.57 0.62 0.67 0.73
0.41 0.20 0.20 0.26 0.29 0.38 0.44 0.48 0.47 0.57 0.77 0.61 0.50 0.63 0.71 0.91 0.86 0.73 0.57 0.42 0.40 0.28 0.24 0.22 0.16 0.16 0.13 0.15 0.16 0.20 0.28 0.32 0.37 0.44 0.42 0.44 0.43 0.42 0.47 0.47 0.52 0.53 0.58 0.61
0.69 0.69 0.58 0.54 0.52 0.65 0.69 0.68 0.54 0.57 0.63 0.70 0.72 0.71 0.68 0.80 0.73 0.63 0.47 0.38 0.33 0.25 0.23 0.22 0.17 0.18 0.16 0.19 0.23 0.27 0.30 0.31 0.30 0.28 0.31 0.33 0.35 0.38 0.40 0.41 0.45 0.45 0.46 0.49
1.08 1.04 1.07 0.90 0.74 0.83 0.91 0.80 0.78 0.67 0.74 0.75 0.69 0.66 0.55 0.60 0.50 0.36 0.36 0.28 0.20 0.21 0.23 0.23 0.19 0.18 0.17 0.25 0.30 0.31 0.32 0.27 0.25 0.27 0.29 0.30 0.32 0.34 0.35 0.35 0.38 0.42 0.41 0.39
0.79 0.79 0.96 0.88 0.75 0.65 0.70 0.84 0.74 0.72 0.66 0.72 0.64 0.56 0.44 0.42 0.42 0.30 0.26 0.23 0.22 0.21 0.26 0.26 0.16 0.14 0.20 0.29 0.28 0.26 0.29 0.25 0.22 0.25 0.25 0.25 0.27 0.26 0.27 0.28 0.28 0.27 0.31 0.29
0.65 0.60 0.57 0.55 0.53 0.60 0.55 0.55 0.53 0.62 0.59 0.67 0.61 0.47 0.34 0.29 0.35 0.34 0.29 0.28 0.24 0.21 0.24 0.22 0.14 0.15 0.23 0.26 0.26 0.25 0.26 0.24 0.21 0.26 0.28 0.26 0.25 0.24 0.23 0.23 0.23 0.22 0.21 0.21
0.67 0.67 0.59 0.51 0.52 0.49 0.45 0.45 0.50 0.59 0.52 0.57 0.53 0.41 0.38 0.31 0.30 0.28 0.25 0.22 0.15 0.16 0.22 0.27 0.20 0.20 0.22 0.24 0.24 0.24 0.23 0.22 0.21 0.23 0.24 0.23 0.24 0.22 0.22 0.21 0.20 0.19 0.19 0.17
0.61 0.55 0.44 0.44 0.47 0.45 0.45 0.47 0.44 0.48 0.46 0.45 0.50 0.40 0.38 0.35 0.32 0.31 0.30 0.27 0.25 0.26 0.27 0.27 0.23 0.20 0.21 0.23 0.26 0.24 0.23 0.22 0.20 0.20 0.22 0.24 0.24 0.26 0.26 0.25 0.24 0.23 0.22 0.21

GFSNGP_prec_precacc_201.txt.gz
Total_Precipitation_Accumulation
0.09 0.04 0.08 0.16 0.16 0.13 0.33 0.49 0.83 0.30 0.22 0.32 0.33 0.45 0.62 0.39 0.45 0.31 0.67 0.81 0.61 0.64 0.59 0.58 0.65 0.68 0.76 0.66 0.65 0.72 0.68 0.69 0.59 0.72 1.13 1.33 1.64 1.66 1.41 1.13 1.03 0.99 0.90 0.85
0.42 0.05 0.03 0.08 0.10 0.09 0.06 0.07 0.15 0.17 0.17 0.04 0.04 0.10 0.09 0.10 0.11 0.21 0.37 0.28 0.29 0.22 0.23 0.27 0.33 0.39 0.52 0.61 0.53 0.49 0.50 0.46 0.61 0.76 0.68 0.76 0.74 0.67 0.72 0.87 0.90 0.79 0.61 0.57
0.68 0.09 0.20 0.52 0.10 0.05 0.16 0.24 0.19 0.19 0.16 0.02 0.04 0.08 0.15 0.13 0.11 0.12 0.12 0.07 0.15 0.21 0.17 0.27 0.29 0.31 0.44 0.57 0.56 0.41 0.35 0.35 0.39 0.41 0.42 0.37 0.32 0.36 0.43 0.49 0.54 0.66 0.77 0.61
0.87 0.44 1.03 0.35 0.04 0.04 0.20 0.14 0.07 0.11 0.06 0.04 0.04 0.17 0.14 0.07 0.06 0.08 0.07 0.07 0.06 0.09 0.06 0.13 0.26 0.44 0.51 0.55 0.60 0.58 0.39 0.29 0.23 0.22 0.26 0.34 0.49 0.59 0.60 0.58 0.49 0.47 0.60 1.01
1.12 0.78 0.42 0.12 0.09 0.13 0.19 0.34 0.22 0.18 0.12 0.06 0.05 0.20 0.31 0.11 0.09 0.10 0.07 0.05 0.01 0.02 0.01 0.02 0.10 0.38 0.76 0.90 0.71 0.70 0.57 0.50 0.40 0.41 0.48 0.63 0.79 0.87 0.79 0.75 0.84 0.81 0.79 0.86
1.24 1.18 0.56 0.23 0.16 0.07 0.20 0.73 0.74 0.41 0.37 0.32 0.21 0.40 0.44 0.16 0.12 0.07 0.03 0.01 0.01 0.01 0.01 0.03 0.09 0.26 0.47 0.88 1.04 0.86 0.87 0.80 0.83 0.77 0.79 0.89 0.86 0.77 0.76 0.85 0.91 1.04 1.12 0.84
1.37 1.78 0.93 0.24 0.08 0.11 0.63 1.21 0.89 0.86 1.07 0.91 0.94 1.06 0.63 0.37 0.15 0.04 0.00 0.00 0.01 0.02 0.02 0.02 0.07 0.23 0.57 0.84 1.30 1.38 1.19 1.29 1.23 1.14 1.12 1.01 0.95 0.90 0.93 0.98 1.02 0.94 0.87 0.85
1.39 1.75 1.12 0.27 0.43 0.94 1.03 0.60 0.77 1.28 1.52 1.29 1.10 0.80 0.45 0.14 0.06 0.02 0.00 0.01 0.01 0.01 0.03 0.03 0.06 0.10 0.30 0.74 1.49 2.07 1.88 1.53 1.48 1.34 1.05 0.96 0.88 0.88 0.88 0.86 0.89 0.85 0.74 0.68
1.07 0.87 0.51 0.38 0.65 0.83 0.71 0.76 0.87 0.77 0.81 0.57 0.44 0.21 0.07 0.04 0.01 0.00 0.00 0.00 0.01 0.02 0.04 0.08 0.10 0.10 0.19 0.32 0.63 1.65 2.48 2.41 1.91 1.41 1.28 1.25 1.21 1.15 1.04 0.92 0.82 0.85 0.81 0.76
1.17 0.67 0.37 0.54 0.41 0.54 0.80 0.73 0.46 0.43 0.42 0.38 0.26 0.16 0.11 0.04 0.03 0.01 0.01 0.01 0.03 0.04 0.04 0.03 0.04 0.09 0.20 0.33 0.56 0.98 1.57 2.16 2.48 2.47 1.71 1.54 1.68 1.56 1.61 1.56 1.27 1.20 1.25 1.23
1.45 1.51 0.97 0.62 0.58 0.60 0.64 0.62 0.61 0.34 0.25 0.28 0.36 0.31 0.27 0.24 0.12 0.06 0.07 0.08 0.06 0.09 0.08 0.06 0.09 0.12 0.20 0.37 0.50 0.59 0.87 1.36 1.69 2.42 2.34 1.47 1.32 1.45 1.35 1.62 1.67 1.42 1.27 1.31
1.35 1.35 1.64 1.17 1.30 1.02 0.87 0.49 0.32 0.18 0.23 0.18 0.11 0.12 0.17 0.23 0.34 0.33 0.28 0.29 0.22 0.16 0.11 0.12 0.15 0.18 0.24 0.27 0.31 0.37 0.66 1.12 1.38 1.66 2.32 2.20 1.62 1.88 2.17 2.22 2.16 2.23 2.25 2.03
0.50 0.62 0.95 1.25 0.88 0.46 0.48 0.51 0.29 0.11 0.08 0.03 0.03 0.07 0.16 0.34 0.44 0.45 0.42 0.36 0.33 0.36 0.35 0.27 0.23 0.25 0.27 0.26 0.28 0.37 0.51 0.66 1.03 1.43 1.84 2.04 2.12 1.87 2.00 2.18 2.04 1.98 1.97 1.81
0.13 0.24 0.42 0.36 0.36 0.23 0.21 0.30 0.22 0.20 0.14 0.09 0.09 0.11 0.16 0.34 0.87 1.27 1.19 0.84 0.61 0.52 0.58 0.67 0.70 0.83 0.91 0.85 0.75 0.77 0.93 1.19 1.24 1.40 1.83 2.15 2.24 2.18 2.05 1.83 1.69 1.93 1.95 1.92
0.06 0.13 0.27 0.20 0.14 0.14 0.12 0.14 0.12 0.14 0.18 0.18 0.12 0.15 0.28 0.46 0.64 0.90 1.40 1.54 1.48 1.40 1.45 1.37 1.33 1.78 1.84 1.69 1.64 1.65 1.48 1.51 1.54 1.68 1.70 1.77 1.88 1.89 1.79 1.74 1.71 1.75 1.68 1.48
0.15 0.08 0.06 0.11 0.13 0.14 0.12 0.14 0.16 0.11 0.06 0.05 0.12 0.23 0.21 0.34 0.43 0.55 0.84 1.08 1.21 1.59 1.92 1.96 1.99 2.03 1.74 1.57 1.33 1.32 1.31 1.16 0.98 0.99 1.19 1.33 1.33 1.39 1.52 1.56 1.58 1.57 1.55 1.62
0.31 0.15 0.09 0.13 0.14 0.16 0.16 0.15 0.15 0.11 0.07 0.07 0.10 0.15 0.16 0.21 0.38 0.73 1.06 1.15 1.30 1.47 1.50 1.38 1.41 1.20 0.96 0.92 0.79 0.77 0.81 0.78 0.69 0.67 0.70 0.78 0.95 1.09 1.18 1.18 1.23 1.23 1.32 1.40
0.18 0.12 0.17 0.40 0.37 0.19 0.11 0.12 0.16 0.13 0.12 0.15 0.30 0.43 0.47 0.53 0.77 1.16 1.49 1.45 1.05 1.01 1.09 1.05 0.85 0.67 0.60 0.60 0.51 0.48 0.47 0.46 0.51 0.59 0.60 0.64 0.71 0.76 0.76 0.77 0.85 0.89 1.01 1.00
0.30 0.40 0.29 0.29 0.31 0.24 0.18 0.18 0.17 0.21 0.30 0.33 0.45 0.74 0.91 0.97 0.93 0.90 0.90 0.86 0.90 0.77 0.88 0.62 0.52 0.41 0.36 0.36 0.31 0.36 0.38 0.40 0.39 0.40 0.47 0.50 0.53 0.63 0.69 0.67 0.67 0.73 0.77 0.79
0.27 0.25 0.27 0.23 0.23 0.24 0.21 0.26 0.31 0.44 0.56 0.49 0.56 0.65 0.63 0.70 0.61 0.62 0.62 0.59 0.54 0.49 0.36 0.35 0.32 0.31 0.28 0.24 0.16 0.20 0.24 0.29 0.29 0.35 0.45 0.48 0.58 0.62 0.57 0.52 0.57 0.62 0.67 0.73
0.41 0.20 0.20 0.28 0.31 0.41 0.47 0.51 0.50 0.59 0.78 0.62 0.51 0.63 0.71 0.91 0.86 0.75 0.59 0.43 0.42 0.28 0.25 0.23 0.18 0.18 0.16 0.17 0.17 0.21 0.29 0.32 0.37 0.44 0.42 0.44 0.43 0.42 0.47 0.47 0.52 0.53 0.58 0.61
0.69 0.69 0.58 0.54 0.53 0.66 0.70 0.69 0.55 0.59 0.64 0.71 0.75 0.74 0.71 0.83 0.75 0.65 0.47 0.38 0.33 0.25 0.23 0.23 0.18 0.18 0.17 0.20 0.23 0.27 0.30 0.31 0.30 0.28 0.31 0.33 0.35 0.38 0.40 0.41 0.45 0.45 0.46 0.49
1.08 1.04 1.07 0.90 0.74 0.84 0.91 0.80 0.80 0.68 0.76 0.78 0.73 0.70 0.58 0.62 0.51 0.37 0.37 0.28 0.20 0.21 0.23 0.23 0.19 0.18 0.17 0.25 0.30 0.31 0.32 0.27 0.25 0.27 0.29 0.30 0.32 0.34 0.35 0.35 0.38 0.42 0.41 0.39
0.79 0.79 0.96 0.88 0.75 0.65 0.70 0.85 0.74 0.74 0.70 0.78 0.69 0.59 0.47 0.43 0.42 0.30 0.26 0.23 0.22 0.21 0.26 0.26 0.16 0.14 0.20 0.29 0.28 0.26 0.29 0.25 0.22 0.25 0.25 0.25 0.27 0.26 0.27 0.28 0.28 0.27 0.31 0.29
0.65 0.60 0.57 0.55 0.53 0.60 0.55 0.55 0.53 0.63 0.60 0.69 0.65 0.51 0.36 0.29 0.35 0.34 0.29 0.28 0.24 0.21 0.24 0.22 0.14 0.15 0.23 0.26 0.26 0.25 0.26 0.24 0.21 0.26 0.28 0.26 0.25 0.24 0.23 0.23 0.23 0.22 0.21 0.21
0.67 0.67 0.59 0.51 0.52 0.49 0.46 0.46 0.50 0.60 0.55 0.59 0.55 0.44 0.42 0.34 0.30 0.28 0.25 0.22 0.15 0.16 0.22 0.27 0.20 0.20 0.22 0.24 0.24 0.24 0.23 0.22 0.21 0.23 0.24 0.23 0.24 0.22 0.22 0.21 0.20 0.19 0.19 0.17
0.61 0.55 0.44 0.44 0.47 0.46 0.46 0.47 0.45 0.48 0.47 0.48 0.53 0.43 0.42 0.40 0.36 0.33 0.30 0.27 0.25 0.26 0.27 0.27 0.23 0.20 0.21 0.23 0.26 0.24 0.23 0.22 0.20 0.20 0.22 0.24 0.24 0.26 0.26 0.25 0.24 0.23 0.22 0.21

GFSNGP_prec_precacc_204.txt.gz
Total_Precipitation_Accumulation
0.09 0.04 0.08 0.16 0.16 0.13 0.33 0.49 0.83 0.30 0.23 0.32 0.33 0.45 0.62 0.39 0.45 0.31 0.67 0.81 0.61 0.64 0.59 0.58 0.65 0.68 0.76 0.66 0.65 0.72 0.68 0.69 0.59 0.72 1.13 1.33 1.64 1.66 1.41 1.13 1.03 1.00 0.91 0.85
0.43 0.05 0.04 0.11 0.11 0.09 0.06 0.07 0.15 0.17 0.18 0.05 0.04 0.10 0.09 0.10 0.11 0.21 0.37 0.28 0.29 0.22 0.23 0.27 0.33 0.39 0.52 0.61 0.53 0.49 0.50 0.46 0.61 0.76 0.68 0.76 0.74 0.67 0.72 0.87 0.91 0.79 0.61 0.57
0.70 0.09 0.22 0.55 0.10 0.05 0.16 0.24 0.19 0.21 0.17 0.03 0.04 0.08 0.15 0.13 0.11 0.12 0.12 0.07 0.15 0.21 0.17 0.27 0.29 0.31 0.44 0.57 0.57 0.41 0.35 0.35 0.39 0.41 0.42 0.37 0.32 0.36 0.43 0.49 0.54 0.66 0.77 0.61
0.87 0.44 1.04 0.35 0.04 0.04 0.20 0.14 0.07 0.11 0.07 0.04 0.04 0.17 0.14 0.07 0.06 0.08 0.07 0.07 0.06 0.09 0.06 0.13 0.26 0.44 0.52 0.55 0.60 0.58 0.39 0.29 0.23 0.22 0.26 0.34 0.49 0.59 0.60 0.58 0.49 0.47 0.60 1.01
1.12 0.78 0.43 0.12 0.09 0.13 0.19 0.34 0.22 0.18 0.12 0.06 0.05 0.20 0.31 0.11 0.09 0.10 0.07 0.05 0.01 0.02 0.01 0.02 0.10 0.38 0.76 0.90 0.72 0.70 0.57 0.50 0.40 0.41 0.48 0.63 0.79 0.88 0.80 0.76 0.84 0.81 0.79 0.86
1.27 1.27 0.64 0.24 0.16 0.07 0.20 0.73 0.74 0.41 0.37 0.32 0.21 0.40 0.44 0.16 0.12 0.07 0.03 0.01 0.01 0.01 0.01 0.03 0.09 0.27 0.48 0.88 1.04 0.86 0.87 0.81 0.83 0.78 0.79 0.90 0.87 0.78 0.77 0.86 0.91 1.04 1.13 0.85
1.37 1.80 0.94 0.24 0.08 0.11 0.63 1.21 0.89 0.86 1.07 0.91 0.94 1.06 0.63 0.37 0.15 0.04 0.00 0.00 0.01 0.02 0.02 0.02 0.07 0.23 0.57 0.84 1.30 1.38 1.19 1.29 1.23 1.14 1.12 1.02 0.95 0.90 0.93 0.99 1.03 0.95 0.88 0.88
1.39 1.75 1.12 0.27 0.43 0.94 1.03 0.60 0.77 1.28 1.52 1.29 1.10 0.80 0.45 0.14 0.06 0.02 0.00 0.01 0.01 0.01 0.03 0.03 0.06 0.10 0.30 0.74 1.49 2.07 1.88 1.53 1.48 1.34 1.05 0.96 0.88 0.88 0.88 0.87 0.93 0.91 0.79 0.76
1.07 0.87 0.51 0.38 0.65 0.83 0.71 0.76 0.87 0.77 0.81 0.57 0.44 0.21 0.07 0.04 0.01 0.00 0.00 0.00 0.01 0.02 0.04 0.08 0.10 0.11 0.19 0.32 0.64 1.65 2.48 2.41 1.91 1.41 1.28 1.25 1.21 1.16 1.06 0.97 0.90 0.96 0.93 0.88
1.17 0.67 0.37 0.54 0.41 0.54 0.80 0.73 0.46 0.43 0.42 0.38 0.26 0.16 0.11 0.04 0.03 0.01 0.01 0.02 0.03 0.04 0.04 0.03 0.04 0.09 0.21 0.34 0.56 0.98 1.57 2.16 2.48 2.47 1.72 1.55 1.72 1.64 1.72 1.69 1.42 1.35 1.41 1.33
1.45 1.51 0.97 0.62 0.58 0.60 0.64 0.62 0.62 0.35 0.25 0.28 0.36 0.31 0.27 0.24 0.12 0.06 0.08 0.11 0.08 0.10 0.09 0.07 0.10 0.15 0.22 0.38 0.50 0.59 0.87 1.36 1.69 2.43 2.35 1.52 1.41 1.56 1.47 1.76 1.78 1.52 1.33 1.34
1.35 1.35 1.65 1.17 1.30 1.02 0.87 0.49 0.32 0.18 0.23 0.18 0.11 0.12 0.17 0.23 0.34 0.33 0.30 0.31 0.24 0.17 0.14 0.16 0.20 0.21 0.25 0.27 0.31 0.37 0.66 1.12 1.39 1.68 2.36 2.28 1.71 1.99 2.29 2.31 2.21 2.26 2.28 2.04
0.50 0.62 0.96 1.25 0.88 0.46 0.48 0.51 0.29 0.11 0.08 0.03 0.03 0.07 0.17 0.34 0.44 0.46 0.43 0.37 0.34 0.37 0.38 0.28 0.23 0.26 0.27 0.26 0.28 0.37 0.51 0.66 1.04 1.44 1.87 2.11 2.19 1.94 2.07 2.29 2.11 2.02 1.99 1.83
0.14 0.31 0.48 0.37 0.36 0.23 0.22 0.31 0.22 0.20 0.14 0.09 0.09 0.11 0.16 0.34 0.87 1.27 1.19 0.84 0.62 0.53 0.59 0.67 0.70 0.83 0.91 0.85 0.77 0.79 0.93 1.19 1.24 1.41 1.84 2.18 2.29 2.22 2.08 1.86 1.72 1.99 1.99 1.93
0.08 0.15 0.29 0.20 0.14 0.15 0.12 0.15 0.14 0.14 0.18 0.18 0.13 0.16 0.29 0.47 0.64 0.90 1.40 1.54 1.48 1.40 1.45 1.37 1.33 1.78 1.84 1.69 1.64 1.66 1.48 1.51 1.54 1.69 1.72 1.80 1.91 1.91 1.80 1.74 1.71 1.75 1.69 1.49
0.15 0.08 0.06 0.11 0.13 0.14 0.12 0.15 0.18 0.12 0.06 0.06 0.13 0.24 0.22 0.34 0.43 0.55 0.84 1.09 1.21 1.59 1.92 1.96 1.99 2.03 1.74 1.57 1.33 1.32 1.31 1.16 0.99 1.01 1.21 1.34 1.33 1.39 1.52 1.56 1.58 1.57 1.55 1.63
0.31 0.15 0.09 0.14 0.15 0.16 0.16 0.17 0.18 0.14 0.09 0.10 0.13 0.17 0.17 0.22 0.39 0.73 1.06 1.15 1.30 1.47 1.50 1.38 1.41 1.20 0.96 0.92 0.80 0.77 0.81 0.79 0.70 0.70 0.74 0.79 0.95 1.09 1.18 1.18 1.23 1.23 1.32 1.40
0.18 0.12 0.17 0.42 0.41 0.23 0.14 0.13 0.18 0.16 0.15 0.18 0.32 0.45 0.47 0.54 0.78 1.16 1.49 1.45 1.05 1.01 1.09 1.05 0.86 0.68 0.60 0.61 0.53 0.49 0.47 0.47 0.53 0.61 0.62 0.64 0.71 0.76 0.76 0.77 0.85 0.89 1.01 1.00
0.30 0.40 0.29 0.29 0.33 0.28 0.23 0.23 0.21 0.25 0.32 0.34 0.46 0.75 0.92 0.99 0.95 0.91 0.90 0.86 0.90 0.77 0.88 0.63 0.53 0.43 0.37 0.37 0.32 0.37 0.39 0.41 0.42 0.42 0.47 0.50 0.53 0.63 0.69 0.67 0.67 0.73 0.77 0.79
0.27 0.25 0.27 0.24 0.23 0.26 0.24 0.28 0.33 0.46 0.59 0.51 0.57 0.66 0.63 0.70 0.61 0.62 0.62 0.59 0.54 0.49 0.36 0.36 0.33 0.32 0.30 0.27 0.18 0.22 0.25 0.30 0.29 0.35 0.45 0.48 0.58 0.62 0.57 0.52 0.57 0.62 0.67 0.73
0.41 0.20 0.20 0.28 0.31 0.41 0.47 0.52 0.52 0.61 0.80 0.64 0.53 0.66 0.73 0.92 0.86 0.75 0.59 0.44 0.43 0.29 0.25 0.24 0.19 0.20 0.18 0.20 0.19 0.22 0.30 0.33 0.38 0.44 0.42 0.44 0.43 0.42 0.47 0.47 0.52 0.53 0.58 0.61
0.69 0.69 0.58 0.54 0.53 0.66 0.70 0.69 0.56 0.60 0.66 0.73 0.76 0.75 0.73 0.86 0.77 0.66 0.48 0.39 0.34 0.26 0.24 0.23 0.18 0.18 0.17 0.20 0.24 0.28 0.30 0.31 0.30 0.28 0.31 0.33 0.35 0.38 0.40 0.41 0.45 0.45 0.46 0.49
1.08 1.04 1.07 0.90 0.74 0.84 0.91 0.80 0.80 0.69 0.77 0.80 0.76 0.72 0.59 0.63 0.52 0.38 0.38 0.29 0.21 0.21 0.23 0.23 0.19 0.18 0.17 0.25 0.30 0.31 0.32 0.27 0.25 0.27 0.29 0.30 0.32 0.34 0.35 0.35 0.38 0.42 0.41 0.39
0.79 0.79 0.96 0.88 0.75 0.65 0.71 0.85 0.74 0.74 0.71 0.79 0.71 0.62 0.50 0.45 0.43 0.31 0.26 0.23 0.22 0.21 0.26 0.26 0.16 0.14 0.20 0.29 0.28 0.26 0.29 0.25 0.22 0.25 0.25 0.25 0.27 0.26 0.27 0.28 0.28 0.27 0.31 0.29
0.65 0.60 0.57 0.55 0.53 0.60 0.55 0.56 0.53 0.63 0.61 0.70 0.66 0.53 0.39 0.33 0.38 0.34 0.29 0.28 0.24 0.21 0.24 0.22 0.14 0.15 0.23 0.26 0.26 0.25 0.26 0.24 0.21 0.26 0.28 0.26 0.25 0.24 0.23 0.23 0.23 0.22 0.22 0.21
0.67 0.67 0.59 0.51 0.52 0.49 0.46 0.46 0.50 0.60 0.55 0.60 0.56 0.45 0.44 0.37 0.34 0.31 0.26 0.22 0.15 0.16 0.22 0.27 0.20 0.20 0.22 0.24 0.24 0.24 0.23 0.22 0.21 0.23 0.24 0.23 0.24 0.22 0.22 0.21 0.20 0.19 0.19 0.17
0.61 0.55 0.44 0.44 0.47 0.46 0.46 0.47 0.45 0.48 0.47 0.48 0.53 0.43 0.44 0.43 0.39 0.38 0.33 0.29 0.25 0.26 0.27 0.27 0.23 0.20 0.21 0.23 0.26 0.24 0.23 0.22 0.20 0.20 0.22 0.24 0.24 0.26 0.26 0.25 0.24 0.23 0.22 0.21